Regional Weather Roundup
Issued by NWS

Home | Current Version | Previous Version | Text Only | Print | Product List | Glossary On
Versions: 1 2 3 4 5 6 7 8 9 10 11 12 13 14 15 16 17 18 19 20 21 22 23 24 25 26 27 28 29 30 31 32 33 34 35 36 37 38 39 40 41 42 43 44 45 46 47 48 49 50
527
ASUS43 KTOP 280959
RWRKS

WEATHER ROUNDUP FOR KANSAS
NATIONAL WEATHER SERVICE GOODLAND KS
500 AM CDT WED JUN 28 2017

NOTE:  "FAIR" INDICATES FEW OR NO CLOUDS BELOW 12,000 FEET WITH NO
SIGNIFICANT WEATHER AND/OR OBSTRUCTIONS TO VISIBILITY.

KSZ001>006-013>018-027>032-041>047-281100-
NORTHWEST KANSAS

CITY           SKY/WX    TMP DP  RH WIND       PRES   REMARKS
GOODLAND       CLEAR     61  59  93 S6        29.79S
HAYS           LGT RAIN  70  63  78 S8        29.78F
HILL CITY      CLOUDY    70  62  76 S15G25    29.74S
RUSSELL        CLOUDY    72  59  63 S17G25    29.72F
$$

KSZ061>065-074>080-084>089-281100-
SOUTHWEST KANSAS

CITY           SKY/WX    TMP DP  RH WIND       PRES   REMARKS
DODGE CITY     CLOUDY    72  64  76 SE16      29.82F
ELKHART          N/A     73  46  38 S24         N/A
GARDEN CITY    PTCLDY    72  59  63 SE17      29.76F
GREAT BEND     CLOUDY    68  66  93 S14       29.77F
LIBERAL        PTCLDY    74  60  61 S23       29.78S
$$

KSZ066>073-081>083-090>101-281100-
SOUTHEAST KANSAS

CITY           SKY/WX    TMP DP  RH WIND       PRES   REMARKS
CHANUTE          N/A    N/A N/A N/A MISG      29.91
COFFEYVILLE    HAZE      70  65  84 S8        29.90R VSB 1
HUTCHINSON     CLOUDY    76  65  68 SW16      29.86R
MEDICINE LODGE   N/A     73  64  73 S5        29.84R
NEWTON         MOCLDY    74  65  73 S20G26    29.86R
PARSONS        PTCLDY    71  64  78 S8        29.91R
WICHITA INTL   CLOUDY    73  66  78 S14       29.85S
WICHITA JABRA  CLOUDY    73  66  78 S14G24    29.86R
WINFIELD       CLEAR     73  67  81 S10       29.89R
$$

KSZ007>012-019>026-033>040-048>060-102>105-281100-
NORTHEAST KANSAS

CITY           SKY/WX    TMP DP  RH WIND       PRES   REMARKS
CONCORDIA      LGT RAIN  74  68  81 S22G32    29.74R
EMPORIA        CLOUDY    71  67  87 S18       29.85S
LAWRENCE       MOCLDY    73  66  78 S12G21    29.86R
MANHATTAN      CLOUDY    76  67  73 SW12G20   29.83R
OLATHE IND     CLOUDY    72  65  78 S14G22    29.88R
OLATHE EXE     CLOUDY    70  65  84 S10G21    29.88R
SALINA         LGT RAIN  79  68  69 SW18G29   29.81F
TOPEKA BILLARD MOCLDY    75  67  76 S15G24    29.82R
TOPEKA FORBES  MOCLDY    75  67  76 S16       29.84R
$$




USA.gov is the U.S. government's official web portal to all federal, state and local government web resources and services.